Погода в Кирове

Хотите узнать прогноз погоды в Кирове? Тогда Вам сюда: Погода в Кирове

Поиск расширенной информации на нашем сайте:

Полезная информация:

Новости сайта



02.01.2020
Опубликован Долгосрочный прогноз погоды по городам России и ближнего зарубежья на январь 2020 года.
Карты: Прогноз на январь и февраль 2020 года, Сравнение прогнозируемой аномалии приземной температуры воздуха на январь 2020 года по разным моделям.




Погода в Кирове - сегодня

Время (UTC), дата Ветер
(°,м/с) 
Видим.   Явления Облачность Т
(°С)
Тd
(°С)
f(%) Тe
(°С)
Pmin
(гПа)
dP
(гПа)
Po
(мм)
O2
(г/м3)
Тmin Tmax R s Состояние
почвы
15 02.07.20 170 (Ю) 1-2{05}  20000 м  {гроза, ливн. осадки}  8/4 600 м кучево-дожд., средняя 
[Cb cap|Ac trans]
+19.7 +14.2 71 +29  1009.1  0.9  743  276    +23.4  0.7     
18 02.07.20 220 (ЮЗ) 1-2{03}  20000 м  {гроза, ливн. осадки}  4/4 600 м кучево-дожд. 
[Cb calv]
+16 +13.4 85 +23  1010.2  0.8  744  280           
21 02.07.20 250 (З) 1-2{02}  20000 м    ясно 
+13 +11.3 89 +17  1011.3  0.8  744  284           
00 03.07.20 тихо () -0{02}  10 км    ясно 
+11.3 +10 92 +13  1012.4  745  286           
03 03.07.20 270 (З) 1-2{02}  20000 м    1/0 верхняя 
[Ci]
+16.6 +13.1 80 +24  1012.8  0.8  746  281  +10.8        влажная 
06 03.07.20 220 (ЮЗ) 1-3{03}  20000 м    4/4 600 м 
[Cu med, cong]
+21.8 +13.5 59 +28  1013.5  746  276           
09 03.07.20 220 (ЮЗ) 2-4{05}  20000 м    5/5 600 м 
[Cu med, cong]
+23.7 +10.4 43 +25  1013.9  0.5  747  275           
12 03.07.20 310 (СЗ) 1-3{05}  20000 м    4/4 600 м 
[Cu med, cong]
+25.7 +9.7 36 +27  1013.4  -0.4  746  273           
15 03.07.20 230 (ЮЗ) 1-2{07}  20000 м    3/1 600 м верхняя 
[Cu med, cong|Ci fib]
+26 +9.1 34 +26  1013.5  0.1  747  273    +26.3       
18 03.07.20 тихо () -0{02}  20000 м    8/3 600 м средняя, верхняя 
[Sc|Ac trans|Cs]
+18.6 +13.4 72 +25  1014.3  0.3  747  279           
21 03.07.20 тихо () -0{01}  20000 м    4/4 600 м верхняя 
[Sc|Cs]
+15.3 +12.8 85 +20  1015.1  0.5  747  283           
00 04.07.20 170 (Ю) 1-3{03}  20000 м    10/3 600 м средняя, верхняя 
[Sc|Ac trans|Cs]
+16 +14 88 +24  1014.9  -0.1  747  282           
03 04.07.20 140 (ЮВ) 1-3{03}  20000 м    10/3 600 м средняя, верхняя 
[Sc|Ac trans|Cs]
+20.1 +15.9 77 +30  1014.2  -0.4  747  277  +14.7        сухая 
06 04.07.20 150 (ЮВ) 2-4{04}  20000 м    10/0 средняя 
[As trans]
+22.8 +17.4 72 +36  1013.1  -0.9  746  274           
09 04.07.20 220 (ЮЗ) 1-2{06}  4000 м  ливневой дождь  10/8 300 м кучево-дожд., средняя 
[Cb cap|As op]
+19.1 +17.7 92 +35  1013.2  -0.1  746  277           
12 04.07.20 280 (З) 3-6{06}  20000 м  {ливн. осадки}  6/4 300 м кучево-дожд., верхняя 
[Cb calv|Cc]
+23.9 +16.8 64 +36  1011.4  -1.5  745  272           
15 04.07.20 270 (З) 1-4{06}  20000 м    9/6 600 м кучево-дожд., средняя, верхняя 
[Cb calv|Ac lent|Ci fib]
+24.1 +16.8 64 +36  1011.1  -0.3  745  272    +25.1  11     
18 04.07.20 150 (ЮВ) 1-1{04}  20000 м  в посл. час ливневой дождь  9/9 600 м 
[Sc diur, vesp]
+20.5 +17.9 85 +35  1011.3  745  275           
21 04.07.20 тихо () -0{01}  20000 м    10/0 средняя, верхняя 
[Ac lent|Ci fib]
+18.3 +16.6 90 +30  1010.2  -1.2  744  277           
00 05.07.20 тихо () -0{01}  20000 м    10/3 600 м кучево-дожд., верхняя 
[Cb calv|Ci fib]
+17.7 +16.3 92 +29  1010.2  -0.1  744  278           
03 05.07.20 тихо () -0{02}  20000 м    9/0 верхняя 
[Cs]
+19.6 +17.7 89 +34  1010.2  0.1  744  276  +17.3    0.0    влажная 
06 05.07.20 220 (ЮЗ) 1-3{03}  20000 м    9/8 600 м кучево-дожд., верхняя 
[Cb calv|Ci]
+23.5 +17.8 70 +38  1009.5  -0.4  744  272           
09 05.07.20 310 (СЗ) 1-3{04}  20000 м    5/4 600 м кучево-дожд., верхняя 
[Cb calv|Ci fib]
+26.6 +16.1 53 +37  1009.2  -0.1  743  270           
12 05.07.20 260 (З) 1-2{03}  20000 м    8/6 600 м кучево-дожд., средняя 
[Cb calv|Ac trans]
+26.8 +15.3 49 +36  1008.3  -0.9  743  269           
15 05.07.20 240 (ЮЗ) 1-2{04}  20000 м    9/5 600 м кучево-дожд., средняя, верхняя 
[Cb calv|Ac trans|Ci fib]
+25.7 +17 59 +38  1007.9  -0.4  743  270    +28       
Время (UTC), дата Ветер
(°,м/с) 
Видим.   Явления Облачность Т
(°С)
Тd
(°С)
f(%) Тe
(°С)
Pmin
(гПа)
dP
(гПа)
Po
(мм)
O2
(г/м3)
Тmin Tmax R s Состояние
почвы

Для получения пояснительной информации подведите курсор к названию столбца.

ПОГОДА в Кирове - архив

Всё, что Вы хотите узнать о погоде в Кирове - удобно и подробно!

Выберите нужную дату (начиная с 1 января 2019* года) и нажмите кнопку "Найти".
Будут отображены архивные сводки погоды по пункту Киров, начиная с указанной даты.


Отображать данные в формате CSV (для использования в таблицах Excel)


Внимание! Наш архив погоды предназначен исключительно для личного некоммерческого использования в познавательных целях. Если Вам необходимы официальные справки о состоянии погоды (для производственных, юридических, коммерческих и т.п. целей), обращайтесь в органы Росгидромета.

*Примечание: данная дата относится к архиву по метеостанциям СССР (Россия, СНГ, Балтия).
Архив по метеостанциям Зарубежной Европы и Азии (кроме Китая) хранится 10 дней, по другим регионам земного шара (Китай, Африка, Америка, Австралия, Океания) - 1 день.

Киров - район местоположения метеостанции


Название, широта, долгота, высота метеостанции:
Киров 58.6°ш. 49.6°д. 158 м над ур. моря [Российская Федерация]

Дополнительная информация

В oтличие oт бoльшинства пoгoдных сайтoв мы публикуем пoдрoбную метеoинфoрмацию в детальнoм прoфессиoнальнoм фoрмате.

Характеристики температуры и влажнoсти вoздуха измеряются на высoте 2 м в тени вдали oт зданий и деревьев.
Скoрoсть ветра измеряется на высoте 10 м (на урoвне рoста челoвека скoрoсть ветра ниже в 1.5-2 раза). Если метеoстанция нахoдится в гoрoде или в лесу, тo скoрoсть ветра занижена на 2-4 м/с пo сравнению с oткрытым местoм. Скoрoсть ветра над акватoриями крупных рек и oзёр, а также на вершинах хoлмoв на 2-5 м/с выше, чем в oбычных услoвиях.
Атмoсфернoе давление в разных тoчках местнoсти мoжет значительнo oтличаться oт давления на метеoстанции, в зависимoсти oт услoвий рельефа (при пoдъёме на 10 м давление пoнижается примернo на 1 мм рт.ст.).